Weather History for Dijon, France

Change the Weather History Date:

Thursday, November 1, 2012

  Actual Average Record
Temperature  
Mean Temperature 40 °F -  
Max Temperature 51 °F 46 °F 66 °F (1999)
Min Temperature 30 °F 35 °F 23 °F (1997)
Degree Days  
Heating Degree Days 24    
Moisture  
Dew Point 38 °F    
Average Humidity 88    
Maximum Humidity 100    
Minimum Humidity 76    
Precipitation  
Precipitation 0.08 in 0.08 in - ()
Sea Level Pressure  
Sea Level Pressure 29.33 in    
Wind  
Wind Speed 6 mph ()    
Max Wind Speed 18 mph    
Max Gust Speed -    
Visibility 4.2 miles    
Events Fog , Rain    
Averages and records for this station are not official NWS values.
T = Trace of Precipitation, MM = Missing Value Source: Averaged Metar Reports

Daily Weather History Graph

Daily Weather History Graph

Search for Another Location

Airport:

Trip Planner

Search our weather history database for the weather conditions in past years. The results will help you decide how hot, cold, wet, or windy it might be!

Date:

Astronomy

Nov. 01, 2012 Rise Set
Actual Time 7:23 AM CET 5:22 PM CET
Civil Twilight 6:51 AM CET 5:54 PM CET
Nautical Twilight 6:15 AM CET 6:30 PM CET
Astronomical Twilight 5:39 AM CET 7:06 PM CET
Moon 6:58 PM CET (11/1) 9:51 AM CET (11/1)
Length of Visible Light 11h 03m
Length of Day
9h 59m
Waning Gibbous, 94% of the Moon is Illuminated
Nov 1
Waning Gibbous
Nov 7
Last Quarter
Nov 13
New
Nov 20
First Quarter
Nov 28
Full

Hourly Weather History & Observations

Time (CET) Temp. Windchill Dew Point Humidity Pressure Visibility Wind Dir Wind Speed Gust Speed Precip Events Conditions
12:00 AM 37.4 °F - 35.6 °F 93% 29.36 in - SE 1.2 mph - N/A   Mist
12:30 AM 35.6 °F - 33.8 °F 93% 29.36 in 1.4 mi Variable 2.3 mph - N/A   Mist
1:00 AM 35 °F - 33 °F 90% 29.38 in 0 mi South 2.3 mph - - Fog Partial Fog
1:00 AM 35.6 °F - 33.8 °F 93% 29.33 in 0.1 mi Variable 2.3 mph - N/A Fog Fog
1:30 AM 35.6 °F 32.8 °F 33.8 °F 93% 29.33 in 0.1 mi South 3.5 mph - N/A Fog Fog
2:00 AM 33.8 °F 30.8 °F 32.0 °F 93% 29.33 in 0.1 mi SSW 3.5 mph - N/A Fog Fog
2:30 AM 33.8 °F - 33.8 °F 100% 29.33 in 0.4 mi Calm Calm - N/A Fog Fog
3:00 AM 33.8 °F - 32.0 °F 93% 29.30 in 0.1 mi Calm Calm - N/A Fog Fog
3:30 AM 32.0 °F - 30.2 °F 93% 29.30 in 0.0 mi Variable 1.2 mph - N/A Fog Light Freezing Fog
4:00 AM 30.2 °F 26.7 °F 30.2 °F 100% 29.30 in 0.1 mi SSE 3.5 mph - N/A Fog Light Freezing Fog
4:30 AM 32.0 °F 28.7 °F 30.2 °F 93% 29.30 in 0.0 mi SSW 3.5 mph - N/A Fog Light Freezing Fog
5:00 AM 32.0 °F - 30.2 °F 93% 29.30 in 0.1 mi South 1.2 mph - N/A Fog Light Freezing Fog
5:30 AM 32.0 °F - 30.2 °F 93% 29.30 in 0.1 mi Calm Calm - N/A Fog Light Freezing Fog
6:00 AM 32.0 °F - 30.2 °F 93% 29.30 in 0.1 mi Calm Calm - N/A Fog Light Freezing Fog
6:30 AM 32.0 °F 27.5 °F 32.0 °F 100% 29.30 in 1.2 mi SSE 4.6 mph - N/A   Mist
7:00 AM 35 °F - 35 °F 98% 29.33 in 2 mi South 3.5 mph - -   Mist
7:00 AM 35.6 °F 32.8 °F 35.6 °F 100% 29.30 in - South 3.5 mph - N/A   Mist
7:30 AM 35.6 °F 32.8 °F 35.6 °F 100% 29.30 in - SSE 3.5 mph - N/A   Mist
8:00 AM 37.4 °F 31.4 °F 35.6 °F 93% 29.30 in - SSW 8.1 mph - N/A   Mist
8:30 AM 37.4 °F 30.8 °F 37.4 °F 100% 29.30 in 3.1 mi South 9.2 mph - N/A   Mist
9:00 AM 39.2 °F 33.6 °F 39.2 °F 100% 29.30 in 3.7 mi South 8.1 mph - N/A   Unknown
9:30 AM 39.2 °F 33.6 °F 39.2 °F 100% 29.30 in 4.3 mi South 8.1 mph - N/A   Unknown
10:00 AM 42.8 °F 36.2 °F 39.2 °F 87% 29.27 in 6.2 mi South 12.7 mph - N/A   Unknown
10:30 AM 44.6 °F 38.1 °F 39.2 °F 81% 29.27 in 6.2 mi SSW 13.8 mph - N/A   Unknown
11:00 AM 46.4 °F 41.1 °F 41.0 °F 81% 29.27 in 6.2 mi SSW 11.5 mph - N/A   Unknown
11:30 AM 46.4 °F 40.7 °F 41.0 °F 81% 29.27 in 6.2 mi SSW 12.7 mph - N/A Rain Light Rain
12:00 PM 44.6 °F 38.1 °F 42.8 °F 93% 29.27 in 6.2 mi South 13.8 mph - N/A Rain Light Rain
12:30 PM 46.4 °F 40.4 °F 42.8 °F 87% 29.27 in 6.2 mi SSW 13.8 mph - N/A Rain Light Rain
1:00 PM 48 °F - 43 °F 78% 29.30 in 12 mi South 15.0 mph - -   Clear
1:00 PM 48.2 °F - 42.8 °F 82% 29.27 in 6.2 mi South 15.0 mph - N/A   Unknown
1:30 PM 48.2 °F - 44.6 °F 87% 29.27 in 6.2 mi South 15.0 mph - N/A   Overcast
2:00 PM 50.0 °F - 42.8 °F 76% 29.27 in 6.2 mi South 16.1 mph - N/A   Overcast
2:30 PM 50.0 °F - 42.8 °F 76% 29.27 in 6.2 mi SSW 13.8 mph - N/A   Overcast
3:00 PM 50.0 °F - 44.6 °F 82% 29.30 in 6.2 mi SW 11.5 mph - N/A Rain Rain
3:30 PM 50.0 °F - 44.6 °F 82% 29.30 in 6.2 mi SSW 10.4 mph - N/A   Overcast
4:00 PM 50.0 °F - 44.6 °F 82% 29.30 in 6.2 mi SW 9.2 mph - N/A   Overcast
4:30 PM 51.8 °F - 44.6 °F 76% 29.30 in 6.2 mi SSW 6.9 mph - N/A   Overcast
5:00 PM 48.2 °F - 41.0 °F 76% 29.33 in 2.5 mi West 18.4 mph - N/A Rain Rain
5:30 PM 48.2 °F - 42.8 °F 82% 29.33 in 6.2 mi SW 12.7 mph - N/A   Mostly Cloudy
6:00 PM 48.2 °F - 41.0 °F 76% 29.36 in 6.2 mi WSW 16.1 mph - N/A Rain Light Rain
6:30 PM 46.4 °F 39.2 °F 41.0 °F 81% 29.36 in 6.2 mi WSW 18.4 mph - N/A Rain Light Rain
7:00 PM 46 °F - 42 °F 79% 29.40 in 31 mi SSW 12.7 mph - -   Clear
7:00 PM 46.4 °F 40.7 °F 41.0 °F 81% 29.39 in 6.2 mi SSW 12.7 mph - N/A   Unknown
7:30 PM 46.4 °F 42.4 °F 41.0 °F 81% 29.39 in 6.2 mi SSW 8.1 mph - N/A   Unknown
8:00 PM 44.6 °F 39.7 °F 41.0 °F 87% 29.39 in 6.2 mi SSW 9.2 mph - N/A   Unknown
8:30 PM 44.6 °F 39.2 °F 41.0 °F 87% 29.42 in 6.2 mi South 10.4 mph - N/A   Unknown
9:00 PM 42.8 °F 37.5 °F 41.0 °F 93% 29.44 in 6.2 mi South 9.2 mph - N/A   Mostly Cloudy
9:30 PM 42.8 °F 37.5 °F 39.2 °F 87% 29.44 in 6.2 mi South 9.2 mph - N/A   Partly Cloudy
10:00 PM 42.8 °F 37.5 °F 39.2 °F 87% 29.47 in 6.2 mi South 9.2 mph - N/A   Unknown
10:30 PM 42.8 °F 38.0 °F 39.2 °F 87% 29.50 in 6.2 mi SSW 8.1 mph - N/A   Unknown
11:00 PM 44.6 °F 38.4 °F 39.2 °F 81% 29.50 in 6.2 mi SW 12.7 mph - N/A   Partly Cloudy
11:30 PM 44.6 °F 38.1 °F 39.2 °F 81% 29.53 in 6.2 mi SSW 13.8 mph - N/A   Partly Cloudy